Date String (YYYY-MM-DD hh:mm:ss) UTC,Instrument flags,Ambient pressure (hPa),Sample flow (lpm),Bypass flow (lpm),Sample temperature (°C),Ambient temperature (°C),ASC tube jacket temperature (°C),LED temperature (°C),Box temperature (°C),Sample RH (%),Span deviation,Mass concentration (μg/m³),Mass concentration (μg/m³),Mass concentration (μg/m³)
DateTimeUTC,F1_M11,P_M11,Q1_M11,Q2_M11,T1_M11,T2_M11,T3_M11,T4_M11,T5_M11,U1_M11,ZSPAN_M11,X2_M11,X0_M11,X1_M11
2022-04-16 01:00:00,,0822.7,4.99,0.00,28.1,27.3,00.0,37.0,29.9,08.5,0000.0,0005.66,0021.64,0004.01
2022-04-16 01:01:00,,0822.7,5.00,0.00,28.1,27.3,00.0,37.0,29.9,08.5,0000.0,0005.62,0019.91,0004.01
2022-04-16 01:02:00,,0822.8,4.99,0.00,28.1,27.3,00.0,37.0,29.9,08.4,0000.0,0005.62,0020.72,0004.02
2022-04-16 01:03:00,,0822.7,5.00,0.00,28.1,27.3,00.0,37.0,29.9,08.4,0000.0,0005.62,0021.21,0004.04
2022-04-16 01:04:00,,0822.8,5.00,0.00,28.1,27.3,00.0,37.0,29.9,08.4,0000.0,0005.59,0020.18,0004.05
2022-04-16 01:05:00,,0822.7,5.01,0.00,28.1,27.3,00.0,37.0,29.9,08.3,0000.0,0005.61,0021.21,0004.06
2022-04-16 01:06:00,,0822.7,5.00,0.00,28.1,27.3,00.0,37.0,29.9,08.3,0000.0,0005.57,0021.98,0004.07
2022-04-16 01:07:00,,0822.7,5.00,0.00,28.1,27.3,00.0,37.0,29.9,08.3,0000.0,0005.57,0021.57,0004.07
2022-04-16 01:08:00,,0822.8,5.00,0.00,28.1,27.3,00.0,37.0,29.9,08.3,0000.0,0005.62,0021.33,0004.07
2022-04-16 01:09:00,,0822.8,5.00,0.00,28.1,27.2,00.0,37.0,29.9,08.3,0000.0,0005.66,0021.04,0004.09
2022-04-16 01:10:00,,0822.9,4.99,0.00,28.1,27.2,00.0,37.0,29.9,08.3,0000.0,0005.65,0020.25,0004.09
2022-04-16 01:11:00,,0823.0,4.99,0.00,28.1,27.2,00.0,37.0,29.9,08.2,0000.0,0005.67,0020.12,0004.10
2022-04-16 01:12:00,,0822.9,5.01,0.00,28.1,27.2,00.0,37.0,29.9,08.2,0000.0,0005.69,0020.23,0004.13
2022-04-16 01:13:00,,0823.0,5.00,0.00,28.1,27.3,00.0,37.0,29.9,08.2,0000.0,0005.70,0019.73,0004.15
2022-04-16 01:14:00,,0823.0,5.02,0.00,28.1,27.2,00.0,37.0,29.9,08.2,0000.0,0005.76,0019.95,0004.19
2022-04-16 01:15:00,,0823.0,5.00,0.00,28.1,27.2,00.0,37.0,29.9,08.2,0000.0,0005.84,0020.26,0004.22
2022-04-16 01:16:00,,0823.0,5.00,0.00,28.1,27.1,00.0,37.0,29.9,08.2,0000.0,0005.86,0019.82,0004.24
2022-04-16 01:17:00,,0822.9,5.00,0.00,28.1,27.1,00.0,37.0,29.9,08.2,0000.0,0005.88,0018.87,0004.25
2022-04-16 01:18:00,,0822.9,5.00,0.00,28.1,27.2,00.0,37.0,29.8,08.1,0000.0,0005.90,0018.62,0004.26
2022-04-16 01:19:00,,0822.9,5.00,0.00,28.1,27.2,00.0,37.0,29.8,08.2,0000.8,0005.88,0019.40,0004.27
2022-04-16 01:20:00,,0823.0,5.00,0.00,28.1,27.2,00.0,37.0,29.8,08.2,0001.5,0005.82,0019.24,0004.28
2022-04-16 01:21:00,,0823.0,5.02,0.00,28.1,27.3,00.0,37.0,29.8,08.2,0006.1,0005.91,0019.25,0004.30
2022-04-16 01:22:00,,0823.0,5.01,0.00,28.0,27.3,00.0,37.0,29.8,08.2,0003.4,0005.92,0018.72,0004.31
2022-04-16 01:23:00,,0823.0,5.01,0.00,28.0,27.3,00.0,37.0,29.8,08.3,0001.1,0005.98,0019.04,0004.31
2022-04-16 01:24:00,,0822.9,5.00,0.00,28.0,27.3,00.0,37.0,29.8,08.3,0000.0,0006.00,0019.39,0004.31
2022-04-16 01:25:00,,0823.0,5.00,0.00,28.0,27.3,00.0,37.0,29.8,08.4,0000.0,0005.98,0019.47,0004.30
2022-04-16 01:26:00,,0823.0,5.00,0.00,28.0,27.3,00.0,37.0,29.8,08.4,0000.0,0005.93,0018.63,0004.30
2022-04-16 01:27:00,,0823.1,5.00,0.00,28.0,27.3,00.0,37.0,29.8,08.4,0000.0,0005.98,0017.71,0004.31
2022-04-16 01:28:00,,0823.1,5.00,0.00,28.0,27.3,00.0,37.0,29.8,08.4,0000.0,0006.00,0018.36,0004.31
2022-04-16 01:29:00,,0823.1,4.99,0.00,28.0,27.3,00.0,37.0,29.8,08.5,0000.0,0006.04,0018.09,0004.32
2022-04-16 01:30:00,,0823.2,5.01,0.00,28.0,27.3,00.0,37.0,29.7,08.4,0000.0,0006.06,0017.42,0004.32
2022-04-16 01:31:00,,0823.2,4.99,0.00,28.0,27.3,00.0,37.0,29.7,08.4,0000.0,0006.02,0017.78,0004.31
2022-04-16 01:32:00,,0823.2,5.01,0.00,28.0,27.3,00.0,37.0,29.7,08.4,0000.0,0006.00,0018.51,0004.32
2022-04-16 01:33:00,,0823.2,5.00,0.00,28.0,27.3,00.0,36.9,29.7,08.5,0000.0,0006.01,0018.71,0004.32
2022-04-16 01:34:00,,0823.3,4.99,0.00,28.0,27.2,00.0,36.9,29.7,08.5,0000.0,0005.97,0018.29,0004.32
2022-04-16 01:35:00,,0823.4,5.00,0.00,28.0,27.2,00.0,36.9,29.7,08.5,0000.0,0005.91,0017.66,0004.32
2022-04-16 01:36:00,,0823.4,5.01,0.00,28.0,27.2,00.0,36.9,29.7,08.6,0000.0,0005.87,0017.10,0004.33
2022-04-16 01:37:00,,0823.3,5.00,0.00,28.0,27.3,00.0,36.9,29.8,08.6,0000.0,0005.88,0017.38,0004.32
2022-04-16 01:38:00,,0823.3,4.99,0.00,28.0,27.2,00.0,36.9,29.7,08.5,0000.0,0005.85,0017.39,0004.32
2022-04-16 01:39:00,,0823.3,4.99,0.00,28.0,27.2,00.0,36.9,29.7,08.4,0000.0,0005.83,0017.40,0004.32
2022-04-16 01:40:00,,0823.3,5.00,0.00,28.0,27.2,00.0,36.9,29.7,08.4,0000.0,0005.76,0017.32,0004.31
2022-04-16 01:41:00,,0823.3,5.01,0.00,28.0,27.2,00.0,36.9,29.7,08.4,0000.0,0005.74,0017.37,0004.30
2022-04-16 01:42:00,,0823.4,5.00,0.00,27.9,27.2,00.0,36.9,29.7,08.4,0000.0,0005.69,0016.12,0004.28
2022-04-16 01:43:00,,0823.3,5.00,0.00,27.9,27.2,00.0,36.9,29.7,08.4,0000.0,0005.61,0015.09,0004.24
2022-04-16 01:44:00,,0823.3,4.98,0.00,27.9,27.1,00.0,36.9,29.6,08.5,0000.0,0005.58,0015.77,0004.20
2022-04-16 01:45:00,,0823.4,5.00,0.00,27.9,27.1,00.0,36.9,29.6,08.5,0000.0,0005.59,0016.75,0004.19
2022-04-16 01:46:00,,0823.5,5.00,0.00,27.9,27.1,00.0,36.9,29.6,08.6,0000.0,0005.59,0017.09,0004.16
2022-04-16 01:47:00,,0823.6,5.00,0.00,27.9,27.0,00.0,36.9,29.6,08.6,0000.0,0005.60,0017.26,0004.13
2022-04-16 01:48:00,,0823.7,4.99,0.00,27.8,27.0,00.0,36.9,29.5,08.5,0000.0,0005.53,0016.76,0004.09
2022-04-16 01:49:00,,0823.7,4.99,0.00,27.8,26.9,00.0,36.9,29.5,08.5,0000.0,0005.47,0017.35,0004.05
2022-04-16 01:50:00,,0823.7,4.99,0.00,27.7,26.8,00.0,36.8,29.4,08.5,0000.0,0005.41,0017.41,0004.00
2022-04-16 01:51:00,,0823.7,4.99,0.00,27.7,26.7,00.0,36.8,29.3,08.6,0000.0,0005.41,0018.76,0003.96
2022-04-16 01:52:00,,0823.8,5.01,0.00,27.7,26.7,00.0,36.8,29.3,08.6,0000.0,0005.39,0019.51,0003.93
2022-04-16 01:53:00,,0823.7,5.00,0.00,27.7,26.7,00.0,36.8,29.3,08.6,0000.0,0005.40,0020.04,0003.91
2022-04-16 01:54:00,,0823.7,4.99,0.00,27.6,26.7,00.0,36.8,29.3,08.6,0000.0,0005.43,0020.15,0003.89
2022-04-16 01:55:00,,0823.7,4.99,0.00,27.6,26.7,00.0,36.8,29.3,08.7,0000.0,0005.42,0019.29,0003.89
2022-04-16 01:56:00,,0823.7,4.99,0.00,27.6,26.7,00.0,36.7,29.3,08.6,0000.0,0005.36,0017.38,0003.86
2022-04-16 01:57:00,,0823.7,5.00,0.00,27.6,26.7,00.0,36.7,29.3,08.7,0000.0,0005.31,0017.08,0003.85
2022-04-16 01:58:00,,0823.7,5.00,0.00,27.6,26.7,00.0,36.7,29.3,08.7,0000.0,0005.32,0017.10,0003.83
2022-04-16 01:59:00,,0823.8,5.02,0.00,27.6,26.7,00.0,36.7,29.3,08.7,0000.0,0005.37,0017.03,0003.82
